Big Piney, WY

9:34 PM MDT on August 26, 2016 (GMT -0600)
Big Piney-Marbleton

Weather History for KBPI - April, 2013

Change the Weather History Date:

Sunday, April 28, 2013

  Actual Average Record
Temperature  
Mean Temperature 48 °F 40 °F  
Max Temperature 63 °F 56 °F 75 °F (2007)
Min Temperature 32 °F 25 °F 12 °F (2011)
Degree Days  
Heating Degree Days 17 25  
Month to date heating degree days 874 788  
Since 1 July heating degree days 8856 9483  
Cooling Degree Days 0 0  
Month to date cooling degree days 0 0  
Year to date cooling degree days 0 0  
Moisture  
Dew Point 24 °F    
Average Humidity 40    
Maximum Humidity 64    
Minimum Humidity 15    
Precipitation  
Precipitation 0.00 in 0.02 in 0.27 in (2005)
Month to date precipitation 0.25 0.48  
Year to date precipitation 0.44 1.58  
Sea Level Pressure  
Sea Level Pressure 29.90 in    
Wind  
Wind Speed 7 mph (NNW)    
Max Wind Speed 26 mph    
Max Gust Speed 33 mph    
Visibility 10 miles    
Events      
T = Trace of Precipitation, MM = Missing Value Source: NWS Daily Summary

Daily Weather History Graph

Daily Weather History Graph

Search for Another Location

Airport or City:

Trip Planner

Search our weather history database for the weather conditions in past years. The results will help you decide how hot, cold, wet, or windy it might be!

Date:

Astronomy

Apr. 28, 2013 Rise Set
Actual Time 6:18 AM MDT 8:17 PM MDT
Civil Twilight 5:48 AM MDT 8:48 PM MDT
Nautical Twilight 5:11 AM MDT 9:25 PM MDT
Astronomical Twilight 4:30 AM MDT 10:06 PM MDT
Moon 11:53 PM MDT (4/28) 8:36 AM MDT (4/28)
Length of Visible Light 14h 59m
Length of Day
13h 58m
Waning Gibbous, 88% of the Moon is Illuminated
Apr 28
Waning Gibbous
May 2
Last Quarter
May 9
New
May 17
First Quarter
May 24
Full

Hourly Weather History & Observations

Time (MDT) Temp. Windchill Dew Point Humidity Pressure Visibility Wind Dir Wind Speed Gust Speed Precip Events Conditions
12:53 AM 41.0 °F 39.0 °F 26.1 °F 55% 29.97 in 10.0 mi SSE 3.5 mph - N/A   Clear
1:53 AM 44.1 °F - 26.1 °F 49% 29.93 in 10.0 mi Calm Calm - N/A   Clear
2:53 AM 48.9 °F - 21.9 °F 35% 29.89 in 10.0 mi West 6.9 mph - N/A   Clear
3:53 AM 48.0 °F - 21.9 °F 36% 29.88 in 10.0 mi Calm Calm - N/A   Clear
4:53 AM 46.0 °F 43.1 °F 23.0 °F 40% 29.89 in 10.0 mi SSW 5.8 mph - N/A   Clear
5:53 AM 44.1 °F - 23.0 °F 43% 29.90 in 10.0 mi Calm Calm - N/A   Clear
6:53 AM 39.9 °F - 23.0 °F 51% 29.93 in 10.0 mi Calm Calm - N/A   Clear
7:53 AM 43.0 °F 41.3 °F 27.0 °F 53% 29.94 in 10.0 mi ENE 3.5 mph - N/A   Clear
8:53 AM 50.0 °F - 25.0 °F 38% 29.92 in 10.0 mi East 4.6 mph - N/A   Clear
9:53 AM 55.0 °F - 24.1 °F 30% 29.91 in 10.0 mi Calm Calm - N/A   Clear
10:43 AM 60.8 °F - 21.2 °F 22% 30.09 in 10.0 mi NNW 15.0 mph 20.7 mph N/A   Partly Cloudy
10:53 AM 62.1 °F - 21.0 °F 21% 29.88 in 10.0 mi NNW 10.4 mph 21.9 mph N/A   Clear
11:53 AM 59.0 °F - 19.0 °F 21% 29.90 in 10.0 mi WNW 11.5 mph 23.0 mph N/A   Scattered Clouds
12:53 PM 57.9 °F - 19.0 °F 22% 29.89 in 10.0 mi WNW 11.5 mph - N/A   Overcast
1:53 PM 59.0 °F - 12.9 °F 16% 29.86 in 10.0 mi WNW 20.7 mph 32.2 mph N/A   Overcast
2:53 PM 60.1 °F - 19.0 °F 20% 29.83 in 10.0 mi NW 18.4 mph 25.3 mph N/A   Overcast
3:53 PM 57.0 °F - 21.0 °F 25% 29.85 in 10.0 mi NNW 15.0 mph 23.0 mph N/A   Overcast
4:53 PM 55.0 °F - 27.0 °F 34% 29.87 in 10.0 mi NNW 18.4 mph 28.8 mph N/A   Overcast
5:53 PM 55.9 °F - 28.9 °F 36% 29.88 in 10.0 mi North 16.1 mph 27.6 mph N/A   Overcast
6:53 PM 52.0 °F - 28.0 °F 40% 29.90 in 10.0 mi NW 12.7 mph - N/A   Mostly Cloudy
7:53 PM 50.0 °F - 28.0 °F 43% 29.86 in 10.0 mi ENE 5.8 mph - N/A   Partly Cloudy
8:53 PM 43.0 °F 38.8 °F 27.0 °F 53% 29.87 in 10.0 mi ENE 6.9 mph - N/A   Clear
9:53 PM 39.0 °F - 27.0 °F 62% 29.87 in 10.0 mi Calm Calm - N/A   Clear
10:53 PM 37.9 °F - 27.0 °F 65% 29.85 in 10.0 mi Calm Calm - N/A   Clear
11:53 PM 37.0 °F 33.3 °F 26.1 °F 65% 29.86 in 10.0 mi East 4.6 mph - N/A   Clear